Unicom:                    122.8

AWOS:                  118.275

Elevation           1458’ MSL

TPA:                   2500’ MSL

06/24:         5003’ L   75’ W

PAPI:       06/Left     24/Left

(Operate lights on unicom freq.)

Traffic Pattern: Left

Beacon: Sunset to Sunrise

Windsock: yes, lighted

Segmented Circle: No

 

Cleveland Center: 126.72/291.65

FSS: Altoona

[Source: ADDS]
METAR
KFKL 281956Z AUTO VRB05KT 9SM -SN OVC034 M06/M09 A3003 RMK AO2 SLP193 P0000 T10611094 FZRANO =
KFKL 281926Z 2819/2918 01008KT P6SM -SN OVC035 FM282200 36007KT P6SM OVC010 FM290600 01012KT P6SM SCT010
TAF
KFKL 281926Z 2819/2918 01008KT P6SM -SN OVC035 FM282200 36007KT P6SM OVC010 FM290600 01012KT P6SM SCT010 =
[Source: ADDS]
METAR
KDUJ 281953Z AUTO 36009KT 6SM HZ FEW012 SCT018 OVC032 M04/M07 A2996 RMK AO2 SNB1856E47 SLP168 P0000 T10391072 =
KDUJ 281929Z 2819/2918 36005KT 6SM -SN OVC025 FM290000 01008KT P6SM -SN OVC010 FM290400 02010KT P6SM SCT010 FM290900 35010G18KT P6SM SKC
TAF
KDUJ 281929Z 2819/2918 36005KT 6SM -SN OVC025 FM290000 01008KT P6SM -SN OVC010 FM290400 02010KT P6SM SCT010 FM290900 35010G18KT P6SM SKC =

Welcome to Clarion County Airport.

We look forward to serving all of your aviation needs.


Clarion County Airport is a General Aviation, Business Class airport serving the Clarion County Area in Central Western Pennsylvania.  Our 5,003' asphalt runway and gps approaches are capable of serving most of the general aviation fleet in most weather conditions.


If you are planning a fuel stop while flying in Western Pennsylvania, consider paying us a visit. Our prices are some of the lowest in the state Check prices here ----> www.airnav.com/fuel and enter identifier KAXQ or see current prices below. We can have you fueled and taxiing out to the runway in about 10 minutes. Our current hours of operation are Monday- Sunday 8:00AM-4:00PM. Holiday closures are Christmas Day and Thanksgiving. If you require use of the facilities during the holidays or after hours please call ahead and someone will be there to assist you.


- Airport Manager -  


                             CURRENT FUEL PRICES       JET-A w/additive    $4.10            100LL     $4.95 CC  


                              Self Service fueling available 24/7, credit card reader enabled. Center point fueling available upon request.

                                                           For after hours fueling assistance please contact 814-316-5746